Stations météo

réclame
Mon MeteoGroup
Ibiza/Es Codola, Espagne (8373): Température de l'air & dewpoint: 13.07.2018 23:00:00 - 19.07.2018 23:00:00 (CEST)Ibiza/Es Codola, Espagne (8373): Vitesse du vent: 13.07.2018 23:00:00 - 19.07.2018 23:00:00 (CEST)Ibiza/Es Codola, Espagne (8373): Direction du vent: 13.07.2018 23:00:00 - 19.07.2018 23:00:00 (CEST)Ibiza/Es Codola, Espagne (8373): reduced air pressure: 13.07.2018 23:00:00 - 19.07.2018 23:00:00 (CEST)Ibiza/Es Codola, Espagne (8373): visibility: 13.07.2018 23:00:00 - 19.07.2018 23:00:00 (CEST)
Date & Time tt [°C] td [°C] ff [km/h] ff [knt] dd ppp [hPa] vv [km]
19.07.2018 23:00:00 - - - - - - -
19.07.2018 22:00:00 25,1 19,0 5 3 E 1014,1 10
19.07.2018 21:00:00 25,9 19,5 8 4 E 1013,6 10
19.07.2018 20:00:00 26,6 19,2 11 6 E 1013,7 10
19.07.2018 19:00:00 27,4 19,1 13 7 E 1013,9 10
19.07.2018 18:00:00 27,9 19,4 13 7 E 1014,4 10
19.07.2018 17:00:00 27,9 19,7 13 7 E 1014,8 10
19.07.2018 16:00:00 28,3 19,8 13 7 E 1014,9 10
19.07.2018 15:00:00 28,0 19,8 15 8 E 1015,4 10
19.07.2018 14:00:00 28,6 19,5 15 8 E 1015,8 19
19.07.2018 13:00:00 27,9 19,1 13 7 ENE 1016,2 10
19.07.2018 12:00:00 27,4 18,8 9 5 ENE 1016,1 10
19.07.2018 11:00:00 27,4 18,9 9 5 E 1015,6 10
19.07.2018 10:00:00 26,5 18,8 5 3 SSW 1016,0 10
19.07.2018 09:00:00 26,5 19,1 0 0 N 1015,6 10
19.07.2018 08:00:00 23,2 18,9 0 0 N 1015,4 10
19.07.2018 07:00:00 20,2 16,9 2 1 - 1014,9 10
19.07.2018 06:00:00 21,2 17,8 4 2 - 1014,7 10
19.07.2018 05:00:00 20,7 17,4 0 0 N 1014,6 10
19.07.2018 04:00:00 21,4 17,8 2 1 - 1014,8 10
19.07.2018 03:00:00 22,2 18,0 4 2 - 1015,1 10
19.07.2018 02:00:00 22,7 18,2 4 2 - 1015,6 10
19.07.2018 01:00:00 23,6 18,5 4 2 - 1015,5 10
19.07.2018 00:00:00 24,4 19,0 4 2 - 1014,9 10
18.07.2018 23:00:00 25,2 19,1 8 4 E 1014,5 10
18.07.2018 22:00:00 25,5 18,9 11 6 E 1014,1 10
18.07.2018 21:00:00 26,2 19,1 13 7 E 1014,1 10
18.07.2018 20:00:00 27,1 18,4 15 8 E 1014,1 10
18.07.2018 19:00:00 27,8 18,3 18 10 ENE 1014,1 10
18.07.2018 18:00:00 28,2 18,0 18 10 E 1014,3 10
18.07.2018 17:00:00 28,8 17,7 21 11 ENE 1014,6 10
18.07.2018 16:00:00 29,0 17,8 22 12 ENE 1014,9 10
18.07.2018 15:00:00 28,8 18,4 21 11 ENE 1015,4 10
18.07.2018 14:00:00 29,1 17,8 18 10 ENE 1015,7 10
18.07.2018 13:00:00 28,2 18,0 16 9 ENE 1016,1 10
18.07.2018 12:00:00 29,2 18,3 16 9 ENE 1015,9 10
18.07.2018 11:00:00 27,8 18,7 18 10 ENE 1015,3 10
18.07.2018 10:00:00 27,5 19,2 18 10 ENE 1015,7 10
18.07.2018 09:00:00 26,3 19,9 13 7 NE 1015,1 10
18.07.2018 08:00:00 25,4 20,5 16 9 ENE 1014,2 10
18.07.2018 07:00:00 24,2 19,9 13 7 NE 1014,5 10
18.07.2018 06:00:00 23,7 19,9 9 5 NNE 1014,9 10
18.07.2018 05:00:00 24,6 20,1 8 4 E 1015,4 10
18.07.2018 04:00:00 24,7 20,0 9 5 E 1015,1 10
18.07.2018 03:00:00 25,0 20,3 9 5 E 1015,4 10
18.07.2018 02:00:00 25,1 20,6 8 4 E 1015,9 10
18.07.2018 01:00:00 25,2 20,2 9 5 ENE 1016,1 10
18.07.2018 00:00:00 25,2 19,4 9 5 ENE 1016,3 10
17.07.2018 23:00:00 25,7 18,7 8 4 ENE 1016,0 10
17.07.2018 22:00:00 25,9 18,1 9 5 E 1015,9 10
17.07.2018 21:00:00 26,5 19,0 9 5 ENE 1015,8 10
17.07.2018 20:00:00 27,5 16,8 9 5 E 1016,0 10
17.07.2018 19:00:00 28,2 15,7 9 5 - 1016,1 10
17.07.2018 18:00:00 28,4 16,6 11 6 E 1016,4 10
17.07.2018 17:00:00 29,2 15,7 9 5 - 1017,0 10
17.07.2018 16:00:00 28,6 17,8 9 5 - 1017,3 10
17.07.2018 15:00:00 28,7 19,3 13 7 E 1017,6 10
17.07.2018 14:00:00 28,6 19,1 16 9 E 1017,8 10
17.07.2018 13:00:00 28,3 18,2 16 9 E 1018,0 10
17.07.2018 12:00:00 28,6 16,2 21 11 E 1018,1 10
17.07.2018 11:00:00 28,3 16,9 21 11 E 1017,8 10
17.07.2018 10:00:00 28,0 17,2 11 6 E 1017,9 10
17.07.2018 09:00:00 27,3 15,3 9 5 NE 1017,7 10
17.07.2018 08:00:00 24,2 8,3 4 2 - 1017,4 10
17.07.2018 07:00:00 21,6 7,5 5 3 NW 1017,3 10
17.07.2018 06:00:00 20,6 7,7 2 1 - 1016,9 10
17.07.2018 05:00:00 20,1 7,5 8 4 N 1016,7 10
17.07.2018 04:00:00 21,4 6,9 5 3 N 1016,7 10
17.07.2018 03:00:00 21,4 8,6 8 4 NNW 1017,1 10
17.07.2018 02:00:00 23,3 15,4 4 2 - 1017,2 10
17.07.2018 01:00:00 24,5 17,5 9 5 WSW 1017,3 10
17.07.2018 00:00:00 24,9 17,9 13 7 SW 1017,2 10
16.07.2018 23:00:00 25,2 17,7 13 7 SW 1017,0 17
16.07.2018 22:00:00 25,5 17,2 15 8 SW 1016,4 10
16.07.2018 21:00:00 26,2 17,6 16 9 SW 1015,9 10
16.07.2018 20:00:00 27,1 17,4 22 12 SW 1015,7 30
16.07.2018 19:00:00 27,8 17,7 22 12 SW 1015,4 10
16.07.2018 18:00:00 28,6 18,7 26 14 SW 1015,3 10
16.07.2018 17:00:00 30,1 15,8 28 15 SW 1015,0 10
16.07.2018 16:00:00 30,2 15,4 31 17 SW 1014,8 10
16.07.2018 15:00:00 32,5 0,7 28 15 W 1015,0 10
16.07.2018 14:00:00 31,8 3,5 34 18 W 1015,1 10
16.07.2018 13:00:00 31,4 7,1 31 17 W 1014,5 10
16.07.2018 12:00:00 30,4 6,3 34 18 W 1013,8 10
16.07.2018 11:00:00 30,1 8,0 34 18 W 1013,2 10
16.07.2018 10:00:00 29,3 6,8 42 23 W 1013,0 10
16.07.2018 09:00:00 28,5 8,2 41 22 W 1012,6 10
16.07.2018 08:00:00 27,8 8,5 39 21 W 1011,9 10
16.07.2018 07:00:00 27,6 9,6 35 19 W 1011,4 10
16.07.2018 06:00:00 25,7 20,1 21 11 WSW 1011,4 10
16.07.2018 05:00:00 25,6 18,6 18 10 SW 1011,1 15
16.07.2018 04:00:00 25,5 18,6 29 16 SW 1011,4 10
16.07.2018 03:00:00 25,2 18,1 26 14 SSW 1012,4 10
16.07.2018 02:00:00 25,0 18,7 24 13 SSW 1012,4 10
16.07.2018 01:00:00 24,9 19,9 18 10 SSW 1013,2 10
16.07.2018 00:00:00 24,9 20,2 16 9 SSW 1012,3 10
15.07.2018 23:00:00 25,2 20,0 15 8 SSW 1012,7 10
15.07.2018 22:00:00 25,9 20,0 24 13 SSW 1013,3 10
15.07.2018 21:00:00 25,9 19,8 15 8 SSW 1012,3 10
15.07.2018 20:00:00 26,4 19,8 13 7 SSW 1012,2 10
15.07.2018 19:00:00 27,0 20,2 16 9 SSW 1013,0 10
15.07.2018 18:00:00 27,7 20,2 11 6 SW 1013,8 10
15.07.2018 17:00:00 28,0 20,5 18 10 SSW 1014,0 15
15.07.2018 16:00:00 28,0 20,6 21 11 SSW 1014,2 10
15.07.2018 15:00:00 28,3 20,1 21 11 SW 1014,9 10
15.07.2018 14:00:00 28,7 20,2 18 10 SSW 1015,5 17
15.07.2018 13:00:00 28,0 20,1 21 11 SSW 1015,9 10
15.07.2018 12:00:00 27,7 19,9 18 10 SSW 1015,9 10
15.07.2018 11:00:00 27,9 18,6 24 13 SW 1015,8 10
15.07.2018 10:00:00 27,2 20,3 22 12 SW 1016,0 10
15.07.2018 09:00:00 26,6 20,0 15 8 SSW 1016,0 10
15.07.2018 08:00:00 25,5 20,3 11 6 SSW 1015,6 10
15.07.2018 07:00:00 23,8 20,1 2 1 - 1015,2 10
15.07.2018 06:00:00 23,9 20,4 9 5 SW 1015,1 10
15.07.2018 05:00:00 24,7 21,2 15 8 SSW 1015,2 10
15.07.2018 04:00:00 24,7 21,1 13 7 SW 1015,3 10
15.07.2018 03:00:00 24,9 21,2 15 8 SW 1015,5 10
15.07.2018 02:00:00 25,2 21,2 16 9 SW 1016,1 15
15.07.2018 01:00:00 25,6 21,1 18 10 SW 1016,6 10
15.07.2018 00:00:00 25,7 21,4 21 11 SSW 1016,6 10
14.07.2018 23:00:00 25,2 21,0 11 6 SW 1016,1 10
14.07.2018 22:00:00 25,2 21,1 11 6 SW 1015,4 10
14.07.2018 21:00:00 25,9 21,1 11 6 SW 1015,2 10
14.07.2018 20:00:00 26,9 20,6 15 8 SSW 1015,2 10
14.07.2018 19:00:00 28,1 20,1 16 9 SW 1015,6 10
14.07.2018 18:00:00 28,5 20,4 21 11 SW 1016,1 10
14.07.2018 17:00:00 28,8 20,4 21 11 SW 1016,3 20
14.07.2018 16:00:00 28,7 19,5 26 14 SW 1016,6 10
14.07.2018 15:00:00 28,9 18,7 29 16 SW 1016,8 10
14.07.2018 14:00:00 30,1 16,5 31 17 SW 1017,0 10
14.07.2018 13:00:00 30,2 19,0 28 15 SW 1016,8 10
14.07.2018 12:00:00 31,1 16,5 8 4 WSW 1017,0 10
14.07.2018 11:00:00 30,0 17,4 11 6 - 1016,9 10
14.07.2018 10:00:00 29,0 18,5 13 7 W 1016,6 10
14.07.2018 09:00:00 27,6 18,8 15 8 W 1016,2 10
14.07.2018 08:00:00 25,8 20,1 11 6 W 1015,6 10
14.07.2018 07:00:00 24,9 20,4 11 6 W 1015,3 10
14.07.2018 06:00:00 24,4 19,8 4 2 - 1015,2 10
14.07.2018 05:00:00 24,6 20,1 5 3 WSW 1014,9 20
14.07.2018 04:00:00 23,6 18,7 2 1 SW 1014,7 10
14.07.2018 03:00:00 25,1 18,5 8 4 W 1014,9 10
14.07.2018 02:00:00 25,2 18,6 4 2 W 1015,2 20
14.07.2018 01:00:00 25,6 18,8 8 4 WNW 1015,6 10
14.07.2018 00:00:00 26,1 19,1 4 2 - 1015,7 10
13.07.2018 23:00:00 26,7 18,4 9 5 NE 1015,4 10

tt = Température de l'air
td = dewpoint
ff = Vitesse du vent
dd = Direction du vent
ppp = reduced air pressure
vv = visibility

stations d'obs. à proximité